Regional Weather Roundup
Issued by NWS Cleveland, OH

Home | Current Version | Previous Version | Graphics & Text | Print | Product List | Glossary On
Versions: 1 2 3 4 5 6 7 8 9 10 11 12 13 14 15 16 17 18 19 20 21 22 23 24 25 26 27 28 29 30 31 32 33 34 35 36 37 38 39 40 41 42 43 44 45 46 47 48 49 50
000
ASUS41 KCLE 300402
RWRCLE
OHIO REGIONAL WEATHER ROUNDUP
NATIONAL WEATHER SERVICE CLEVELAND, OH
1200 AM EDT SAT MAY 30 2015

NOTE: "FAIR" INDICATES FEW OR NO CLOUDS BELOW 12,000 FEET WITH NO
SIGNIFICANT WEATHER AND/OR OBSTRUCTIONS TO VISIBILITY.

OHZ001>008-015>018-024>027-034-035-043-044-300500-
   NORTHWEST OHIO

CITY           SKY/WX    TMP DP  RH WIND       PRES   REMARKS
DEFIANCE       CLEAR     73  63  70 S8        30.01S
FINDLAY        PTCLDY    73  64  73 S10       30.03S
TOLEDO EXPRESS CLEAR     72  64  76 S7        30.00F
TOLEDO EXEC    CLEAR     75  63  66 S9        30.01F
LIMA           PTCLDY    74  64  71 S8        30.04F
$$

OHZ009>014-019>023-028>033-038-089-300500-
   NORTHEAST OHIO

CITY           SKY/WX    TMP DP  RH WIND       PRES   REMARKS
CLE-HOPKINS    PTCLDY    76  64  66 S13       30.06F
CLE-LAKEFRONT  PTCLDY    78  63  59 S9        30.03F
CUY CO. ARPT   NOT AVBL
LORAIN-ELYRIA  PTCLDY    75  65  70 S10       30.05F
ASHTABULA      CLEAR     72  65  78 S10       30.08F
AKRON-CANTON   MOCLDY    74  65  73 S9        30.10F
WOOSTER        PTCLDY    73  64  73 S9        30.09F
MANSFIELD      PTCLDY    73  64  73 S13       30.08F
YOUNGSTOWN     MOCLDY    71  65  81 S7        30.10F
$$

OHZ042-051>053-060>062-070>072-077>081-300500-
  SOUTHWEST OHIO

CITY           SKY/WX    TMP DP  RH WIND       PRES   REMARKS
CINC-COVINGTON MOCLDY    72  67  84 S7        30.08F
CINC-LUNKEN    PTCLDY    71  67  87 S6        30.08S
HAMILTON       PTCLDY    73  68  84 CALM      30.08S
DAYTON         PTCLDY    75  66  73 S8        30.08S
WRIGHT-PAT AFB PTCLDY    74  66  76 S8        30.07S
DAYTON GENERAL PTCLDY    72  67  84 S8        30.07F
WILMINGTON     PTCLDY    71  63  75 S9        30.08F
$$

OHZ036-037-039>041-045>050-054>059-063>069-073>076-082>088-300500-
  CENTRAL AND SOUTHEAST OHIO

CITY           SKY/WX    TMP DP  RH WIND       PRES   REMARKS
COLUMBUS       MOCLDY    73  65  75 S6        30.08F
OSU AIRPORT    PTCLDY    74  65  73 S9        30.08F
BOLTON FIELD   NOT AVBL
RICKENBACK AFB PTCLDY    70  65  82 S8        30.08F
NEWARK         PTCLDY    72  64  76 S5        30.09F
MARION         MOCLDY    73  65  75 S14       30.07S
LANCASTER      PTCLDY    72  65  78 S5        30.10F
ZANESVILLE     NOT AVBL
NEW PHILLY     MOCLDY    75  66  73 CALM      30.10F
$$


USA.gov is the U.S. government's official web portal to all federal, state and local government web resources and services.